Date String (YYYY-MM-DD hh:mm:ss) UTC,Instrument flags,absolute air pressure of the measurement (hPa),sample flow rate (lpm),inlet stack bypass flow (lpm),air temperature of the measurement (°C),ambient temperature measured by the external sensor (°C),aerosol sample conditioner tube jacket temperature (°C),OPC LED temperature (°C),internal box temperature (°C),relative humidity of the measurement (%),span deviation,mass concentration of particles derived from Lorenz-Mie calculation of OPC scattering (μg/m³),mass concentration of particles derived from Lorenz-Mie calculation of OPC scattering (μg/m³),mass concentration of particles derived from Lorenz-Mie calculation of OPC scattering (μg/m³)
DateTimeUTC,F1_M11,P_M11,Q1_M11,Q2_M11,T1_M11,T2_M11,T3_M11,T4_M11,T5_M11,U1_M11,ZSPAN_M11,X0_M11,X2_M11,X1_M11
2024-06-02 19:00:00,SystemResetWarning,0823.2,4.99,000.00,029.4,029.0,000.0,037.5,031.3,023.6,0000.0,0016.08,0004.55,0003.66
2024-06-02 19:01:00,SystemResetWarning,0823.2,5.00,000.00,029.5,029.1,000.0,037.5,031.4,023.3,0000.0,0016.72,0004.52,0003.66
2024-06-02 19:02:00,SystemResetWarning,0823.1,4.99,000.00,029.5,028.5,000.0,037.6,031.0,022.8,0000.0,0015.51,0004.53,0003.66
2024-06-02 19:03:00,SystemResetWarning,0823.0,4.99,000.00,029.2,026.3,000.0,037.6,030.0,023.3,0000.0,0015.08,0004.52,0003.66
2024-06-02 19:04:00,SystemResetWarning,0823.0,5.02,000.00,028.8,025.5,000.0,037.6,029.5,023.8,0000.0,0014.57,0004.49,0003.65
2024-06-02 19:05:00,SystemResetWarning,0823.0,4.99,000.00,028.7,026.1,000.0,037.5,029.7,023.7,0000.0,0014.11,0004.47,0003.64
2024-06-02 19:06:00,SystemResetWarning,0823.1,5.00,000.00,028.7,026.5,000.0,037.4,030.0,024.1,0000.0,0014.27,0004.44,0003.65
2024-06-02 19:07:00,SystemResetWarning,0823.1,5.00,000.00,028.8,026.9,000.0,037.3,030.2,024.0,0000.0,0016.08,0004.44,0003.66
2024-06-02 19:08:00,SystemResetWarning,0823.1,5.01,000.00,028.8,027.4,000.0,037.3,030.4,023.5,0000.0,0016.68,0004.50,0003.67
2024-06-02 19:09:00,SystemResetWarning,0823.1,4.98,000.00,028.9,027.7,000.0,037.3,030.5,023.2,0000.0,0015.31,0004.50,0003.66
2024-06-02 19:10:00,SystemResetWarning,0823.3,4.99,000.00,028.9,028.0,000.0,037.3,030.7,023.3,0000.0,0015.09,0004.49,0003.66
2024-06-02 19:11:00,SystemResetWarning,0823.0,5.00,000.00,029.0,028.2,000.0,037.3,030.8,022.5,0000.0,0014.53,0004.45,0003.66
2024-06-02 19:12:00,SystemResetWarning,0823.0,5.00,000.00,029.1,028.4,000.0,037.3,030.9,022.7,0000.0,0013.62,0004.45,0003.65
2024-06-02 19:13:00,SystemResetWarning,0823.0,5.00,000.00,029.2,028.6,000.0,037.3,031.0,024.0,0000.0,0013.63,0004.47,0003.65
2024-06-02 19:14:00,SystemResetWarning,0822.9,5.00,000.00,029.3,028.7,000.0,037.3,031.1,023.3,0000.0,0013.51,0004.43,0003.65
2024-06-02 19:15:00,SystemResetWarning,0822.9,5.01,000.00,029.3,028.9,000.0,037.4,031.2,023.0,0000.0,0014.03,0004.45,0003.65
2024-06-02 19:16:00,SystemResetWarning,0823.0,5.00,000.00,029.4,029.0,000.0,037.4,031.3,023.2,0000.0,0013.84,0004.48,0003.64
2024-06-02 19:17:00,SystemResetWarning,0822.9,5.00,000.00,029.5,029.1,000.0,037.5,031.3,022.4,0000.0,0013.09,0004.50,0003.64
2024-06-02 19:18:00,SystemResetWarning,0822.9,5.00,000.00,029.6,029.1,000.0,037.5,031.3,021.9,0000.0,0012.13,0004.50,0003.64
2024-06-02 19:19:00,SystemResetWarning,0822.9,4.98,000.00,029.4,027.5,000.0,037.6,030.5,022.7,0000.0,0011.14,0004.44,0003.61
2024-06-02 19:20:00,SystemResetWarning,0822.9,5.02,000.00,029.0,025.6,000.0,037.6,029.6,023.0,0000.0,0011.97,0004.40,0003.59
2024-06-02 19:21:00,SystemResetWarning,0822.8,5.01,000.00,028.8,025.8,000.0,037.6,029.6,022.8,0000.0,0012.78,0004.38,0003.58
2024-06-02 19:22:00,SystemResetWarning,0822.9,5.00,000.00,028.7,026.3,000.0,037.5,029.9,023.8,0000.0,0013.83,0004.39,0003.56
2024-06-02 19:23:00,SystemResetWarning,0822.9,5.01,000.00,028.8,026.8,000.0,037.4,030.1,023.9,0000.0,0014.82,0004.39,0003.56
2024-06-02 19:24:00,SystemResetWarning,0822.9,4.99,000.00,028.8,027.2,000.0,037.3,030.3,021.0,0000.0,0014.69,0004.39,0003.56
2024-06-02 19:25:00,SystemResetWarning,0822.9,5.00,000.00,028.9,027.6,000.0,037.3,030.5,020.1,0000.0,0015.11,0004.39,0003.55
2024-06-02 19:26:00,SystemResetWarning,0822.9,5.00,000.00,028.9,027.9,000.0,037.3,030.6,020.5,0000.0,0015.63,0004.35,0003.53
2024-06-02 19:27:00,SystemResetWarning,0822.9,5.00,000.00,029.0,028.1,000.0,037.3,030.8,020.8,0000.0,0015.88,0004.34,0003.52
2024-06-02 19:28:00,SystemResetWarning,0822.8,5.00,000.00,029.1,028.3,000.0,037.3,030.9,020.5,0000.0,0016.52,0004.29,0003.50
2024-06-02 19:29:00,SystemResetWarning,0822.8,5.00,000.00,029.2,028.5,000.0,037.3,031.0,022.2,0000.0,0016.71,0004.30,0003.50
2024-06-02 19:30:00,SystemResetWarning,0822.8,5.00,000.00,029.2,028.7,000.0,037.3,031.1,022.0,0000.0,0017.70,0004.33,0003.50
2024-06-02 19:31:00,SystemResetWarning,0822.8,4.99,000.00,029.3,028.8,000.0,037.4,031.2,021.7,0000.0,0016.99,0004.33,0003.51
2024-06-02 19:32:00,SystemResetWarning,0822.9,5.00,000.00,029.4,028.9,000.0,037.4,031.3,021.4,0000.0,0015.78,0004.34,0003.52
2024-06-02 19:33:00,SystemResetWarning,0822.9,4.99,000.00,029.5,029.1,000.0,037.5,031.3,021.1,0000.0,0014.60,0004.32,0003.53
2024-06-02 19:34:00,SystemResetWarning,0822.8,4.99,000.00,029.5,029.1,000.0,037.5,031.3,021.2,0000.0,0014.73,0004.33,0003.53
2024-06-02 19:35:00,SystemResetWarning,0822.8,5.00,000.00,029.4,027.4,000.0,037.6,030.4,021.3,0000.0,0015.51,0004.29,0003.52
2024-06-02 19:36:00,SystemResetWarning,0822.7,5.01,000.00,028.9,025.5,000.0,037.6,029.5,022.0,0000.0,0015.09,0004.32,0003.54
2024-06-02 19:37:00,SystemResetWarning,0822.8,5.01,000.00,028.7,025.8,000.0,037.6,029.6,021.8,0000.0,0014.41,0004.35,0003.56
2024-06-02 19:38:00,SystemResetWarning,0822.9,4.98,000.00,028.7,026.3,000.0,037.5,029.8,022.0,0000.0,0014.64,0004.36,0003.56
2024-06-02 19:39:00,SystemResetWarning,0822.9,5.02,000.00,028.7,026.7,000.0,037.4,030.1,023.6,0000.0,0014.27,0004.39,0003.57
2024-06-02 19:40:00,SystemResetWarning,0822.8,4.99,000.00,028.8,027.2,000.0,037.3,030.3,024.1,0000.0,0013.82,0004.38,0003.57
2024-06-02 19:41:00,SystemResetWarning,0823.0,5.00,000.00,028.8,027.5,000.0,037.3,030.5,023.0,0000.0,0012.51,0004.38,0003.58
2024-06-02 19:42:00,SystemResetWarning,0823.0,5.00,000.00,028.9,027.9,000.0,037.3,030.6,023.3,0000.0,0012.42,0004.37,0003.58
2024-06-02 19:43:00,SystemResetWarning,0822.9,5.00,000.00,029.0,028.1,000.0,037.3,030.8,021.5,0000.0,0012.84,0004.39,0003.58
2024-06-02 19:44:00,SystemResetWarning,0822.8,5.00,000.00,029.1,028.4,000.0,037.3,030.9,021.7,0000.0,0013.40,0004.42,0003.59
2024-06-02 19:45:00,SystemResetWarning,0822.8,5.00,000.00,029.1,028.6,000.0,037.3,031.0,021.8,0000.0,0012.51,0004.41,0003.60
2024-06-02 19:46:00,SystemResetWarning,0823.2,5.00,000.00,029.2,028.7,000.0,037.3,031.1,021.7,0000.0,0011.83,0004.42,0003.60
2024-06-02 19:47:00,SystemResetWarning,0823.1,4.99,000.00,029.3,028.9,000.0,037.4,031.1,021.6,0000.0,0012.27,0004.43,0003.59
2024-06-02 19:48:00,SystemResetWarning,0822.8,5.00,000.00,029.4,029.0,000.0,037.4,031.2,021.1,0000.0,0012.17,0004.46,0003.58
2024-06-02 19:49:00,SystemResetWarning,0822.9,5.00,000.00,029.5,029.1,000.0,037.4,031.3,019.8,0000.0,0011.46,0004.46,0003.57
2024-06-02 19:50:00,SystemResetWarning,0822.8,4.99,000.00,029.5,028.4,000.0,037.5,030.9,019.3,0000.0,0011.10,0004.45,0003.56
2024-06-02 19:51:00,SystemResetWarning,0822.9,5.00,000.00,029.1,026.2,000.0,037.6,029.8,020.1,0000.0,0011.10,0004.46,0003.56
2024-06-02 19:52:00,SystemResetWarning,0822.8,5.01,000.00,028.8,025.6,000.0,037.6,029.5,020.3,0000.0,0011.03,0004.46,0003.56
2024-06-02 19:53:00,SystemResetWarning,0823.0,5.01,000.00,028.7,026.1,000.0,037.5,029.7,019.3,0000.0,0010.84,0004.49,0003.56
2024-06-02 19:54:00,SystemResetWarning,0823.1,4.99,000.00,028.7,026.6,000.0,037.4,030.0,018.3,0000.0,0010.30,0004.44,0003.54
2024-06-02 19:55:00,SystemResetWarning,0822.8,5.00,000.00,028.7,027.0,000.0,037.3,030.2,019.3,0000.0,0009.86,0004.42,0003.53
2024-06-02 19:56:00,SystemResetWarning,0822.9,4.99,000.00,028.8,027.4,000.0,037.3,030.4,020.8,0000.0,0010.00,0004.43,0003.52
2024-06-02 19:57:00,SystemResetWarning,0822.8,5.00,000.00,028.9,027.7,000.0,037.2,030.6,019.5,0000.0,0009.86,0004.44,0003.51
2024-06-02 19:58:00,SystemResetWarning,0822.9,5.00,000.00,029.0,028.0,000.0,037.2,030.7,018.7,0000.0,0009.93,0004.41,0003.50
2024-06-02 19:59:00,SystemResetWarning,0823.2,5.00,000.00,029.0,028.3,000.0,037.3,030.8,018.2,0000.0,0010.02,0004.41,0003.50
